Meteo pe oră la Abakany

Astăzi, 29 Iulie, Joi

Timp Temperatura Precipitaţii Vânt Presiune Umiditate
00:00 +19°C° 0 mm 1 m/s 743 mmHg 90%
01:00 +19°C° 0 mm 1 m/s 743 mmHg 91%
02:00 +18°C° 0 mm 1 m/s 743 mmHg 92%
03:00 +18°C° 0 mm 1 m/s 742 mmHg 92%
04:00 +18°C° 0 mm 1 m/s 742 mmHg 92%
05:00 +18°C° 0 mm 1 m/s 742 mmHg 92%
06:00 +18°C° 0 mm 2 m/s 742 mmHg 88%
07:00 +20°C° 0 mm 2 m/s 742 mmHg 84%
08:00 +21°C° 0 mm 2 m/s 742 mmHg 81%
09:00 +21°C° 0.1 mm 2 m/s 742 mmHg 80%
10:00 +21°C° 0.1 mm 2 m/s 742 mmHg 80%
11:00 +21°C° 0.1 mm 2 m/s 742 mmHg 80%
12:00 +22°C° 0.2 mm 3 m/s 742 mmHg 77%
13:00 +24°C° 0.2 mm 3 m/s 741 mmHg 73%
14:00 +25°C° 0.2 mm 4 m/s 741 mmHg 69%
15:00 +25°C° 0.3 mm 4 m/s 741 mmHg 70%
16:00 +25°C° 0.3 mm 4 m/s 741 mmHg 71%
17:00 +25°C° 0.3 mm 3 m/s 740 mmHg 72%
18:00 +24°C° 0.4 mm 3 m/s 740 mmHg 78%
19:00 +21°C° 0.4 mm 2 m/s 740 mmHg 85%
20:00 +19°C° 0.4 mm 2 m/s 740 mmHg 92%
21:00 +19°C° 0 mm 2 m/s 740 mmHg 92%
22:00 +18°C° 0 mm 2 m/s 740 mmHg 93%
23:00 +17°C° 0 mm 2 m/s 741 mmHg 93%

Mâine, 30 Iulie, Vineri

Timp Temperatura Precipitaţii Vânt Presiune Umiditate
00:00 +17°C° 0 mm 2 m/s 741 mmHg 93%
01:00 +16°C° 0 mm 2 m/s 741 mmHg 94%
02:00 +15°C° 0 mm 2 m/s 741 mmHg 94%
03:00 +15°C° 0 mm 2 m/s 741 mmHg 93%
04:00 +15°C° 0 mm 2 m/s 741 mmHg 92%
05:00 +15°C° 0 mm 2 m/s 741 mmHg 92%
06:00 +17°C° 0 mm 2 m/s 741 mmHg 82%
07:00 +18°C° 0 mm 2 m/s 741 mmHg 72%
08:00 +20°C° 0 mm 3 m/s 741 mmHg 62%
09:00 +21°C° 0 mm 3 m/s 741 mmHg 56%
10:00 +23°C° 0 mm 4 m/s 741 mmHg 49%
11:00 +25°C° 0 mm 4 m/s 741 mmHg 42%
12:00 +25°C° 0 mm 4 m/s 740 mmHg 44%
13:00 +23°C° 0 mm 4 m/s 740 mmHg 46%
14:00 +23°C° 0 mm 4 m/s 740 mmHg 49%
15:00 +23°C° 0 mm 4 m/s 740 mmHg 47%
16:00 +23°C° 0 mm 4 m/s 739 mmHg 45%
17:00 +23°C° 0 mm 4 m/s 739 mmHg 43%
18:00 +22°C° 0 mm 4 m/s 739 mmHg 47%
19:00 +21°C° 0 mm 3 m/s 739 mmHg 51%
20:00 +19°C° 0 mm 3 m/s 739 mmHg 55%
21:00 +18°C° 0 mm 3 m/s 739 mmHg 58%
22:00 +18°C° 0 mm 4 m/s 739 mmHg 60%
23:00 +17°C° 0 mm 4 m/s 738 mmHg 63%

Poimâine, 31 Iulie, Sâmbătă

Timp Temperatura Precipitaţii Vânt Presiune Umiditate
00:00 +17°C° 0 mm 4 m/s 738 mmHg 62%
01:00 +16°C° 0 mm 5 m/s 738 mmHg 61%
02:00 +16°C° 0 mm 5 m/s 738 mmHg 61%
03:00 +16°C° 0 mm 5 m/s 738 mmHg 63%
04:00 +15°C° 0 mm 5 m/s 738 mmHg 65%
05:00 +15°C° 0 mm 5 m/s 738 mmHg 67%
06:00 +16°C° 0 mm 5 m/s 738 mmHg 67%
07:00 +17°C° 0 mm 5 m/s 738 mmHg 66%
08:00 +19°C° 0 mm 5 m/s 738 mmHg 66%
09:00 +21°C° 0 mm 6 m/s 739 mmHg 61%
10:00 +22°C° 0 mm 6 m/s 739 mmHg 56%
11:00 +24°C° 0 mm 6 m/s 739 mmHg 51%
12:00 +24°C° 0.1 mm 6 m/s 739 mmHg 53%
13:00 +23°C° 0.1 mm 5 m/s 739 mmHg 54%
14:00 +23°C° 0.1 mm 5 m/s 740 mmHg 56%
15:00 +25°C° 0 mm 5 m/s 740 mmHg 55%
16:00 +25°C° 0 mm 4 m/s 740 mmHg 55%
17:00 +25°C° 0 mm 4 m/s 740 mmHg 55%
18:00 +24°C° 0 mm 3 m/s 740 mmHg 60%
19:00 +21°C° 0 mm 2 m/s 740 mmHg 66%
20:00 +21°C° 0 mm 1 m/s 740 mmHg 72%
21:00 +19°C° 0 mm 2 m/s 740 mmHg 72%
22:00 +19°C° 0 mm 2 m/s 740 mmHg 72%
23:00 +19°C° 0 mm 2 m/s 740 mmHg 72%

1 August, Duminică

Timp Temperatura Precipitaţii Vânt Presiune Umiditate
00:00 +19°C° 0 mm 2 m/s 740 mmHg 73%
01:00 +18°C° 0 mm 2 m/s 740 mmHg 74%
02:00 +18°C° 0 mm 2 m/s 740 mmHg 75%
03:00 +18°C° 0.4 mm 3 m/s 740 mmHg 82%
04:00 +17°C° 0.4 mm 3 m/s 739 mmHg 88%
05:00 +17°C° 0.4 mm 3 m/s 739 mmHg 95%
06:00 +18°C° 0.2 mm 3 m/s 739 mmHg 94%
07:00 +18°C° 0.2 mm 3 m/s 739 mmHg 93%
08:00 +19°C° 0.2 mm 4 m/s 739 mmHg 92%
09:00 +21°C° 0.1 mm 4 m/s 740 mmHg 76%
10:00 +23°C° 0.1 mm 5 m/s 740 mmHg 61%
11:00 +26°C° 0.1 mm 5 m/s 740 mmHg 45%
12:00 +26°C° 0 mm 5 m/s 740 mmHg 43%
13:00 +27°C° 0 mm 5 m/s 740 mmHg 40%
14:00 +28°C° 0 mm 5 m/s 740 mmHg 37%
15:00 +27°C° 0 mm 5 m/s 740 mmHg 40%
16:00 +27°C° 0 mm 4 m/s 740 mmHg 42%
17:00 +27°C° 0 mm 4 m/s 740 mmHg 44%
18:00 +25°C° 0 mm 3 m/s 741 mmHg 51%
19:00 +23°C° 0 mm 2 m/s 741 mmHg 57%
20:00 +21°C° 0 mm 2 m/s 741 mmHg 63%
21:00 +21°C° 0 mm 1 m/s 741 mmHg 65%
22:00 +21°C° 0 mm 1 m/s 741 mmHg 67%
23:00 +20°C° 0 mm 1 m/s 741 mmHg 69%

2 August, Luni

Timp Temperatura Precipitaţii Vânt Presiune Umiditate
00:00 +20°C° 0 mm 1 m/s 741 mmHg 71%
01:00 +20°C° 0 mm 1 m/s 741 mmHg 73%
02:00 +19°C° 0 mm 1 m/s 741 mmHg 76%
03:00 +19°C° 0 mm 1 m/s 741 mmHg 78%
04:00 +18°C° 0 mm 1 m/s 741 mmHg 80%
05:00 +16°C° 0 mm 0 m/s 741 mmHg 82%
06:00 +18°C° 1.3 mm 1 m/s 740 mmHg 87%
07:00 +16°C° 1.3 mm 1 m/s 740 mmHg 92%
08:00 +16°C° 1.3 mm 1 m/s 740 mmHg 97%
09:00 +16°C° 2.2 mm 1 m/s 739 mmHg 97%
10:00 +16°C° 2.2 mm 2 m/s 739 mmHg 97%
11:00 +16°C° 2.2 mm 2 m/s 738 mmHg 98%
12:00 +16°C° 3 mm 2 m/s 738 mmHg 98%
13:00 +16°C° 3 mm 2 m/s 737 mmHg 98%
14:00 +16°C° 3 mm 2 m/s 736 mmHg 98%
15:00 +16°C° 2.1 mm 3 m/s 736 mmHg 98%
16:00 +15°C° 2.1 mm 4 m/s 737 mmHg 98%
17:00 +14°C° 2.1 mm 4 m/s 737 mmHg 98%
18:00 +14°C° 0.2 mm 4 m/s 737 mmHg 98%
19:00 +13°C° 0.2 mm 4 m/s 738 mmHg 98%
20:00 +13°C° 0.2 mm 3 m/s 738 mmHg 97%
21:00 +13°C° 0 mm 3 m/s 739 mmHg 98%
22:00 +13°C° 0 mm 3 m/s 739 mmHg 98%
23:00 +13°C° 0 mm 3 m/s 739 mmHg 98%

3 August, Marţi

Timp Temperatura Precipitaţii Vânt Presiune Umiditate
00:00 +12°C° 0 mm 3 m/s 739 mmHg 98%
01:00 +12°C° 0 mm 3 m/s 739 mmHg 98%
02:00 +12°C° 0 mm 3 m/s 739 mmHg 97%
03:00 +11°C° 0 mm 3 m/s 740 mmHg 97%
04:00 +11°C° 0 mm 3 m/s 740 mmHg 97%
05:00 +12°C° 0 mm 2 m/s 740 mmHg 97%
06:00 +12°C° 0 mm 3 m/s 740 mmHg 93%
07:00 +13°C° 0 mm 4 m/s 740 mmHg 89%
08:00 +15°C° 0 mm 4 m/s 740 mmHg 85%
09:00 +17°C° 0.1 mm 4 m/s 741 mmHg 81%
10:00 +16°C° 0.1 mm 5 m/s 741 mmHg 77%
11:00 +17°C° 0.1 mm 5 m/s 741 mmHg 73%
12:00 +17°C° 0.3 mm 5 m/s 741 mmHg 75%
13:00 +19°C° 0.3 mm 5 m/s 741 mmHg 76%
14:00 +19°C° 0.3 mm 5 m/s 741 mmHg 78%
15:00 +19°C° 0.3 mm 4 m/s 741 mmHg 77%
16:00 +19°C° 0.3 mm 4 m/s 742 mmHg 77%
17:00 +19°C° 0.3 mm 4 m/s 742 mmHg 77%
18:00 +18°C° 0.1 mm 3 m/s 742 mmHg 80%
19:00 +17°C° 0.1 mm 3 m/s 742 mmHg 83%
20:00 +16°C° 0.1 mm 3 m/s 743 mmHg 86%
21:00 +14°C° 0 mm 3 m/s 743 mmHg 89%
22:00 +13°C° 0 mm 3 m/s 744 mmHg 92%
23:00 +12°C° 0 mm 3 m/s 744 mmHg 95%
Arată mai mult

Formular de consimțământ

Meteoprog și furnizorii noștri de servicii pot stoca și accesa date personale, precum cookies, identificatori de dispozitiv sau alte tehnologii similare pe dispozitivul dumneavoastră și procesa astfel de date pentru a personaliza conținutul și reclamele, dar și pentru a oferi caracteristici de social media și pentru a analiza traficul.

  • Stocarea și/sau accesarea informațiilor pe dispozitivul dumneavoastră

    Cookies, identificatori de dispozitiv sau alte informații pot fi stocate sau accesate pe dispozitiv în scopurile indicate mai sus.

  • Reclame și conținut personalizat, evaluarea reclamelor și a conținutului, informații despre audiențe și dezvoltarea produselor

    Reclamele și conținutul pot fi personalizate pe baza unui profil. Pot fi adăugate date suplimentare pentru a personaliza mai bine reclamele și conținutul. Performanța reclamelor și conținutului poate fi măsurată. Pot fi obținute informații despre utilizatorii care au văzut reclamele și conținutul. Aceste date pot fi utilizate pentru a dezvolta sau îmbunătăți experiența utilizatorilor, sistemele și software-ul.

Dând clic pe ‘Sunt de acord’, permiteți utilizarea cookie-urilor menționate, a identificatorilor de dispozitiv, balizelor web sau altor tehnologii similare. Setările pot fi modificate din browser-ul dispozitivului dumneavoastră.

În anumite scopuri, interesele legitime pot prima asupra consimțământului. Puteți citi mai multe informații în acest sens în Politica privind Confidențialitatea Datelor și Cookie.